Weather in David-Gorodok

Belarus     52°03′27″N   27°12′41″E
temp.,
°C
wind,
m/s
gust,
m/s
humid.,
%
clouds,
%
prec.,
mm/h
press.,
hPa
HPBL,
m
15 april, thu
thu1500:00+8s1296100 0.5 1014111
03:00+7nne0096100 0.6 101416
06:00+7nnw229799 0.0 101474
09:00+8nw2495100 0.1 1015212
12:00+11nw3475100 0.1 1013755
15:00+9nne3693100 1.4 1013405
18:00+9nnw4691100 0.4 1012520
21:00+7nnw4794100 0.4 1012453
16 april, fri
fri1600:00+6nw3695100 0.3 1011290
03:00+6wnw2598100 5.0 1010257
06:00+6nw1198100 1.8 101091
09:00+7ne0296100 1.9 1010287
12:00+9sse1387100 0.1 1011468
15:00+11sse247369 0.9 1011927
18:00+8ssw3486100 0.8 1012338
21:00+5ssw239182 0.9 1014292
17 april, sat
sat1700:00+5s2295100 0.1 1015271
03:00+4sse2396100 0.1 1016305
06:00+4s239388 0.0 1017273
09:00+5ese2388100 0.1 1019450
12:00+6e2483100 0.2 1020559
15:00+8e3471100 0.2 10201020
18:00+9ese247173 0.0 1020803
21:00+6s2280100 0.0 102023
18 april, sun
sun1800:00+4w11895 0.0 102110
03:00+3ssw11935 0.0 102110
06:00+2s11949 0.0 102110
09:00+6ese12785 0.0 1021290
12:00+11e246064 0.0 10201194
15:00+11ne346587 0.1 1020889
18:00+11ene356770 0.1 1020517
21:00+8ese257899 0.2 1021108
19 april, mon
mon1900:00+7e228498 0.0 102144
03:00+8ene3795100 0.1 1021262
06:00+7ene3889100 0.0 1021278
09:00+8e5118199 0.0 1021608
12:00+12e6957100 0.0 10211654
15:00+12e4857100 0.1 10201750
18:00+13ene3859100 0.0 10191021
21:00+10e61366100 0.0 1019742